Location: Tuebingen alte Sternwarte
(48.5376°N, 9.0555°E)
Time: 18:21:03
(UTC+01:00)

Envisat - Pass Details

Date: 26 September 2017
Orbit: 764 x 766 km, 98.2° (Epoch: 10 December)

Event Time Altitude Azimuth Distance (km) Brightness Sun altitude
Exits shadow 22:23:34 10° 225° (SW) 2,284 5.5 -30.4°
Maximum altitude 22:27:08 19° 270° (W) 1,742 5.3 -30.8°
Drops below altitude 10° 22:30:46 10° 316° (NW) 2,313 6.4 -31.3°
Sets 22:33:44 0° 334° (NNW) 3,245 7.2 -31.7°
